Regional Weather Roundup
Issued by NWS Kansas City/Pleasant Hill, MO

Current Version | Previous Version | Text Only | Print | Product List | Glossary On
Versions: 1 2 3 4 5 6 7 8 9 10 11 12 13 14 15 16 17 18 19 20 21 22 23 24 25 26 27 28 29 30 31 32 33 34 35 36 37 38 39 40 41 42 43 44 45 46 47 48 49 50
000
ASUS43 KEAX 021910
RWREAX

WEATHER ROUNDUP FOR EASTERN KANSAS AND NORTHWEST MISSOURI
NATIONAL WEATHER SERVICE KANSAS CITY/PLEASANT HILL MO
200 PM CDT WED SEP 02 2015

KSZ040-057-103>105-MOZ028-029-037-043-022000-
...KANSAS CITY METROPOLITAN AREA...

CITY           SKY/WX    TMP DP  RH WIND       PRES   REMARKS
K.C. INTL      MOSUNNY   85  72  65 S14       29.99F HX  91
K.C. DOWNTOWN  MOSUNNY   88  72  58 S9        29.98F HX  94
LEES SUMMIT    PTSUNNY   87  68  52 S10       30.01F HX  90
OLATHE - IXD   MOSUNNY   86  72  62 S16G23    30.01F HX  92
OLATHE - OJC   PTSUNNY   84  71  65 S17G23    30.00F
LAWRENCE       MOSUNNY   87  72  60 S15       29.98F HX  93

$$

MOZ001>008-011>017-020>025-030>033-038>040-044>046-053-054-022000-
...NORTHERN AND CENTRAL MISSOURI...

CITY           SKY/WX    TMP DP  RH WIND       PRES   REMARKS
ST. JOSEPH     SUNNY     84  72  67 S15       29.97F
MOSBY          PTCLDY    82  70  65 SE8       30.00F
WARRENSBURG    FAIR      88  66  48 S9        30.01F HX  90
WHITEMAN AFB   MOSUNNY   90  68  48 SW14      30.01F HX  94
CLINTON        MOSUNNY   90  70  51 SW7       30.04F HX  95
SEDALIA        PTSUNNY   88  69  53 S9        30.05F HX  92
WARSAW         NOT AVBL
CHILLICOTHE      N/A     82  73  74 S8        29.99F
KIRKSVILLE     CLOUDY    81  68  64 SW12      30.00R

$$

MOZ041-047>049-056>058-063>065-088>090-097-022000-
...EASTERN AND SOUTHERN MISSOURI...

CITY           SKY/WX    TMP DP  RH WIND       PRES   REMARKS
ST. LOUIS INTL PTSUNNY   93  66  40 SW10G17   30.05F HX  96
SPIRIT OF STL  MOSUNNY   90  68  48 SW7       30.03F HX  94
COLUMBIA       CLOUDY    85  70  60 SW5       30.05F
JEFFERSON CITY PTSUNNY   86  69  56 E3        30.03F HX  90
ROLLA          MOSUNNY   89  65  44 S8        30.06F HX  91
OSAGE BEACH    PTSUNNY   88  66  48 S3        30.07F HX  90
SPRINGFIELD    MOSUNNY   86  67  52 S7        30.08F
BRANSON        PTSUNNY   88  66  48 S6        30.10F HX  90
JOPLIN         MOSUNNY   86  69  56 S8        30.06F HX  90
WEST PLAINS    MOSUNNY   87  64  46 VRB6      30.11F

$$

IAZ060-094-KSZ022-034>040-054-083-096-NEZ052-066-093-022000-
...KANSAS...SOUTHEAST NEBRASKA AND IOWA...

CITY           SKY/WX    TMP DP  RH WIND       PRES   REMARKS
TOPEKA         SUNNY     87  72  60 S13G22    29.97F HX  93
MANHATTAN      MOSUNNY   93  65  39 S18G29    29.92F HX  95
EMPORIA        SUNNY     89  66  46 S22       29.97F HX  91
CHANUTE        SUNNY     87  71  58 S18       30.03F HX  93
WICHITA        MOSUNNY   93  64  38 S20G30    29.95F HX  94
OMAHA          MOSUNNY   86  70  58 S17G26    29.88F HX  90
LINCOLN        SUNNY     90  70  51 S17       29.88F HX  95
FALLS CITY     SUNNY     87  69  54 S18G28    29.93F HX  91
LAMONI         SUNNY     84  68  58 SW21G31   29.96F
DES MOINES     MOSUNNY   87  68  52 SW10      29.92F HX  90

$$



USA.gov is the U.S. government's official web portal to all federal, state and local government web resources and services.